Home   Weather   Newport News   Past weeks

Flag for USA Past Weather in Newport News, Virginia, USA — Yesterday and Last 2 Weeks

46 °F


Feels Like: 43 °F
Forecast: 49 / 62 °F
Wind: 6 mph from North

Location: Newport News / Williamsburg International Airport

Current Time: Oct 25, 2016 at 8:12:19 AM

Latest Report: Oct 25, 2016 at 6:54 AM

Visibility: 10 mi

Pressure: 30.32 "Hg

Humidity: 68%

Dew Point: 36 °F

Location of Newport NewsLocation

Past Weather in Newport News — Graph


Newport News Temperature Yesterday

Maximum temperature yesterday: 75 °F (at 1:54 PM)
Minimum temperature yesterday: 56 °F (at 11:54 PM)
Average temperature yesterday: 63 °F

High & Low Weather Summary for the Past Weeks

High87 °F (Oct 19, 2:54 PM)100% (Oct 12, 7:54 AM)30.43 "Hg (Oct 12, 7:54 AM)
Low43 °F (Oct 23, 12:54 AM)34% (Oct 24, 3:54 PM)29.54 "Hg (Oct 21, 4:54 PM)
Average62 °F76%30.10 "Hg
* Reported Oct 10 6:54 AM — Oct 25 6:54 AM, Newport News, Weather by CustomWeather, © 2016

Note: Actual official high and low records may vary slightly from our data, if they occured in-between our weather recording intervals... More about our weather records


Newport News Weather History for the Previous 24 Hours

Scroll right to see more
Time TempWeatherWind HumidityBarometerVisibility
6:54 AM
Tue, Oct 25
46 °FClear.6 mph68%30.32 "Hg10 mi
5:54 AM48 °FClear.6 mph63%30.29 "Hg10 mi
4:54 AM49 °FClear.5 mph64%30.27 "Hg10 mi
3:54 AM49 °FClear.6 mph66%30.26 "Hg10 mi
1:54 AM51 °FClear.6 mph63%30.23 "Hg10 mi
12:54 AM51 °FClear.No wind71%30.22 "Hg10 mi
11:54 PM
Mon, Oct 24
56 °FClear.6 mph58%30.21 "Hg10 mi
10:54 PM57 °FClear.6 mph64%30.19 "Hg10 mi
9:54 PM59 °FPassing clouds.5 mph72%30.16 "Hg10 mi
8:54 PM61 °FPassing clouds.6 mph75%30.14 "Hg10 mi
7:54 PM61 °FPassing clouds.6 mph75%30.11 "Hg10 mi
6:54 PM63 °FPassing clouds.8 mph70%30.08 "Hg10 mi
5:54 PM65 °FSunny.7 mph68%30.04 "Hg10 mi
4:54 PM74 °FPassing clouds.7 mph40%30.01 "Hg10 mi
3:54 PM75 °FSunny.15 mph34%30.00 "Hg10 mi
2:54 PM75 °FSunny.15 mph36%30.00 "Hg10 mi
1:54 PM75 °FSunny.10 mph43%30.01 "Hg10 mi
12:54 PM73 °FSunny.8 mph46%30.03 "Hg10 mi
11:54 AM71 °FSunny.10 mph47%30.04 "Hg10 mi
10:54 AM68 °FSunny.12 mph51%30.05 "Hg10 mi
9:54 AM64 °FSunny.10 mph54%30.05 "Hg10 mi
8:54 AM60 °FSunny.10 mph60%30.05 "Hg10 mi
Weather by CustomWeather, © 2016

See weather overviewHow to use our weather pages